Weather History for KPCZ - March, 2014

Change the Weather History Date:

Friday, March 21, 2014

  Actual Average Record
Temperature  
Mean Temperature 34 °F -  
Max Temperature 46 °F 42 °F 82 °F (2012)
Min Temperature 21 °F 24 °F -5 °F (1965)
Degree Days  
Heating Degree Days 32    
Moisture  
Dew Point 26 °F    
Average Humidity 74    
Maximum Humidity 93    
Minimum Humidity 49    
Precipitation  
Precipitation 0.00 in - - ()
Sea Level Pressure  
Sea Level Pressure 29.86 in    
Wind  
Wind Speed 3 mph (ESE)    
Max Wind Speed 15 mph    
Max Gust Speed 21 mph    
Visibility 9 miles    
Events Rain    
Averages and records for this station are not official NWS values.
T = Trace of Precipitation, MM = Missing Value Source: NWS Daily Summary

Daily Weather History Graph

Daily Weather History Graph

Search for Another Location

Airport or City:

Trip Planner

Search our weather history database for the weather conditions in past years. The results will help you decide how hot, cold, wet, or windy it might be!

Date:

Astronomy

Mar. 21, 2014 Rise Set
Actual Time 6:57 AM CDT 7:09 PM CDT
Civil Twilight 6:28 AM CDT 7:38 PM CDT
Nautical Twilight 5:54 AM CDT 8:12 PM CDT
Astronomical Twilight 5:19 AM CDT 8:47 PM CDT
Moon No Moon Rise 9:38 AM CDT (3/21)
Length of Visible Light 13h 10m
Length of Day
12h 12m
Waning Gibbous, 75% of the Moon is Illuminated
Mar 21
Waning Gibbous
Mar 23
Last Quarter
Mar 30
New
Apr 7
First Quarter
Apr 15
Full

Hourly Weather History & Observations

Time (CDT) Temp. Windchill Dew Point Humidity Pressure Visibility Wind Dir Wind Speed Gust Speed Precip Events Conditions
12:17 AM 26.6 °F - 21.2 °F 80% 30.00 in 10.0 mi Calm Calm - N/A   Clear
12:37 AM 26.6 °F - 21.2 °F 80% 30.00 in 10.0 mi Calm Calm - N/A   Clear
12:57 AM 26.6 °F - 21.2 °F 80% 29.99 in 10.0 mi Calm Calm - N/A   Clear
1:17 AM 26.6 °F - 21.2 °F 80% 29.99 in 10.0 mi Calm Calm - N/A   Clear
1:37 AM 24.8 °F - 21.2 °F 86% 29.99 in 10.0 mi Calm Calm - N/A   Clear
1:57 AM 24.8 °F - 19.4 °F 80% 29.98 in 10.0 mi Calm Calm - N/A   Clear
2:17 AM 24.8 °F - 21.2 °F 86% 29.98 in 10.0 mi Calm Calm - N/A   Clear
2:37 AM 24.8 °F - 21.2 °F 86% 29.97 in 10.0 mi Calm Calm - N/A   Clear
2:57 AM 24.8 °F - 19.4 °F 80% 29.97 in 10.0 mi Calm Calm - N/A   Clear
3:17 AM 23.0 °F - 19.4 °F 86% 29.97 in 10.0 mi Calm Calm - N/A   Clear
3:37 AM 23.0 °F - 19.4 °F 86% 29.98 in 10.0 mi Calm Calm - N/A   Clear
3:57 AM 21.2 °F - 19.4 °F 93% 29.97 in 10.0 mi Calm Calm - N/A   Clear
4:17 AM 23.0 °F - 19.4 °F 86% 29.97 in 10.0 mi Calm Calm - N/A   Clear
4:37 AM 21.2 °F - 19.4 °F 93% 29.97 in 10.0 mi Calm Calm - N/A   Clear
4:57 AM 21.2 °F - 19.4 °F 93% 29.97 in 10.0 mi Calm Calm - N/A   Clear
5:37 AM 21.2 °F - 19.4 °F 93% 29.96 in 10.0 mi Calm Calm - N/A   Clear
5:57 AM 21.2 °F - 17.6 °F 86% 29.95 in 10.0 mi Calm Calm - N/A   Clear
6:17 AM 21.2 °F - 17.6 °F 86% 29.94 in 10.0 mi Calm Calm - N/A   Clear
6:37 AM 21.2 °F - 19.4 °F 93% 29.95 in 10.0 mi Calm Calm - N/A   Clear
6:57 AM 21.2 °F - 19.4 °F 93% 29.94 in 10.0 mi Calm Calm - N/A   Clear
7:19 AM 21.2 °F - 19.4 °F 93% 29.96 in 10.0 mi Calm Calm - N/A   Clear
7:37 AM 23.0 °F - 19.4 °F 86% 29.96 in 7.0 mi Calm Calm - N/A   Clear
7:59 AM 24.8 °F - 21.2 °F 86% 29.96 in 10.0 mi Calm Calm - N/A   Clear
8:17 AM 26.6 °F - 23.0 °F 86% 29.95 in 10.0 mi Calm Calm - N/A   Clear
8:37 AM 28.4 °F - 24.8 °F 86% 29.94 in 10.0 mi Calm Calm - N/A   Clear
8:57 AM 28.4 °F - 24.8 °F 86% 29.94 in 10.0 mi Calm Calm - N/A   Clear
9:17 AM 32.0 °F 28.7 °F 26.6 °F 80% 29.94 in 10.0 mi East 3.5 mph - N/A   Clear
9:37 AM 33.8 °F 28.6 °F 26.6 °F 75% 29.93 in 10.0 mi SE 5.8 mph - N/A   Clear
9:57 AM 37.4 °F 32.1 °F 26.6 °F 65% 29.92 in 10.0 mi SE 6.9 mph - N/A   Clear
10:17 AM 37.4 °F 29.8 °F 26.6 °F 65% 29.91 in 10.0 mi SE 11.5 mph 17.3 mph N/A   Clear
10:39 AM 39.2 °F 33.0 °F 26.6 °F 61% 29.89 in 10.0 mi SE 9.2 mph - N/A   Clear
10:57 AM 39.2 °F 33.6 °F 28.4 °F 65% 29.88 in 10.0 mi SE 8.1 mph - N/A   Scattered Clouds
11:17 AM 39.2 °F 31.6 °F 26.6 °F 61% 29.87 in 10.0 mi SSE 12.7 mph - N/A   Scattered Clouds
11:37 AM 41.0 °F 35.2 °F 26.6 °F 57% 29.86 in 10.0 mi SE 9.2 mph - N/A   Scattered Clouds
11:57 AM 42.8 °F 37.5 °F 26.6 °F 53% 29.85 in 10.0 mi SE 9.2 mph 18.4 mph N/A   Scattered Clouds
12:37 PM 44.6 °F 37.8 °F 26.6 °F 49% 29.83 in 10.0 mi SE 15.0 mph 19.6 mph N/A   Mostly Cloudy
12:57 PM 44.6 °F 39.2 °F 28.4 °F 53% 29.82 in 10.0 mi SE 10.4 mph 20.7 mph N/A   Scattered Clouds
1:19 PM 46.4 °F 40.4 °F 28.4 °F 50% 29.80 in 10.0 mi SE 13.8 mph 20.7 mph N/A   Clear
1:37 PM 44.6 °F 39.2 °F 26.6 °F 49% 29.81 in 10.0 mi SE 10.4 mph - N/A   Scattered Clouds
1:57 PM 42.8 °F 37.0 °F 26.6 °F 53% 29.78 in 10.0 mi SE 10.4 mph - N/A   Scattered Clouds
2:17 PM 44.6 °F 37.8 °F 26.6 °F 49% 29.76 in 10.0 mi SE 15.0 mph - N/A   Mostly Cloudy
2:37 PM 44.6 °F 40.2 °F 28.4 °F 53% 29.76 in 10.0 mi SE 8.1 mph - N/A   Mostly Cloudy
2:57 PM 44.6 °F 41.4 °F 28.4 °F 53% 29.75 in 10.0 mi ESE 5.8 mph - N/A   Overcast
3:37 PM 42.8 °F 37.5 °F 28.4 °F 57% 29.73 in 10.0 mi East 9.2 mph - N/A   Overcast
3:57 PM 44.6 °F 40.7 °F 28.4 °F 53% 29.74 in 10.0 mi East 6.9 mph - N/A   Mostly Cloudy
4:17 PM 42.8 °F 38.0 °F 28.4 °F 57% 29.75 in 10.0 mi East 8.1 mph - N/A   Mostly Cloudy
4:37 PM 42.8 °F 37.5 °F 28.4 °F 57% 29.73 in 10.0 mi ESE 9.2 mph - N/A   Overcast
4:57 PM 42.8 °F 38.0 °F 28.4 °F 57% 29.74 in 10.0 mi ESE 8.1 mph - N/A   Overcast
5:17 PM 41.0 °F 35.2 °F 28.4 °F 61% 29.74 in 10.0 mi East 9.2 mph - N/A   Overcast
5:37 PM 41.0 °F 36.4 °F 28.4 °F 61% 29.74 in 10.0 mi East 6.9 mph - N/A   Overcast
5:57 PM 41.0 °F 35.2 °F 30.2 °F 65% 29.73 in 10.0 mi East 9.2 mph - N/A   Overcast
6:17 PM 39.2 °F 34.2 °F 30.2 °F 70% 29.73 in 10.0 mi East 6.9 mph - N/A   Mostly Cloudy
6:37 PM 39.2 °F 35.0 °F 30.2 °F 70% 29.72 in 10.0 mi East 5.8 mph - N/A   Mostly Cloudy
6:57 PM 37.4 °F 32.8 °F 30.2 °F 75% 29.73 in 10.0 mi East 5.8 mph - N/A   Overcast
7:17 PM 37.4 °F 34.9 °F 30.2 °F 75% 29.73 in 10.0 mi East 3.5 mph - N/A   Overcast
7:37 PM 37.4 °F - 30.2 °F 75% 29.74 in 10.0 mi Calm Calm - N/A   Overcast
7:57 PM 37.4 °F - 30.2 °F 75% 29.75 in 10.0 mi Calm Calm - N/A   Overcast
8:17 PM 37.4 °F - 30.2 °F 75% 29.76 in 10.0 mi Calm Calm - N/A   Overcast
8:37 PM 37.4 °F - 30.2 °F 75% 29.75 in 10.0 mi Calm Calm - N/A   Overcast
8:57 PM 37.4 °F - 30.2 °F 75% 29.76 in 10.0 mi Calm Calm - N/A   Overcast
9:17 PM 37.4 °F - 30.2 °F 75% 29.77 in 7.0 mi Calm Calm - N/A Rain Light Rain
9:37 PM 35.6 °F - 30.2 °F 81% 29.78 in 7.0 mi Calm Calm - N/A Rain Light Rain
9:57 PM 35.6 °F 31.7 °F 30.2 °F 81% 29.79 in 5.0 mi NNW 4.6 mph - N/A Rain Light Rain
10:17 PM 35.6 °F 31.7 °F 32.0 °F 87% 29.80 in 5.0 mi NNW 4.6 mph - N/A Rain Light Rain
10:37 PM 35.6 °F 32.8 °F 32.0 °F 87% 29.80 in 5.0 mi WNW 3.5 mph - N/A   Overcast
10:57 PM 35.6 °F 32.8 °F 32.0 °F 87% 29.81 in 4.0 mi NW 3.5 mph - N/A   Overcast
11:17 PM 35.6 °F 31.7 °F 32.0 °F 87% 29.82 in 4.0 mi NW 4.6 mph - N/A   Overcast
11:37 PM 35.6 °F 29.9 °F 32.0 °F 87% 29.84 in 4.0 mi NW 6.9 mph - N/A   Overcast
11:57 PM 35.6 °F 29.2 °F 33.8 °F 93% 29.85 in 5.0 mi NW 8.1 mph - N/A   Overcast